7 * 24
多渠道服务支持
STARLINK-32556 是 SpaceX Starlink 卫星互联网项目中的一颗低轨卫星,属于 Starlink 群体的组成部分。该卫星由 SpaceX 制造并发射,旨在为全球用户提供高速互联网接入服务。它运行在约 550 公里的轨道高度,具备先进的通信技术和星间链路能力,可实现低延迟、高带宽的网络连接。Starlink 项目致力于改善偏远地区网络覆盖,推动全球数字包容。
美国
(US)
| 数据来源 | 国际轨道数据 |
| 星历时间: | 2025-12-19T23:00:10+0800 19小时前 查看轨道信息 |
| 半长轴: | 6861.197km |
| 偏心率: | 0.0001032 |
| 轨道倾角: | 43.002° |
| 近地点辐角 | 269.660° |
| 升交点赤经 | 330.083° |
| 平近点角 | 90.413° |
| 近地点: | 482.351km |
| 远地点: | 483.769km |
| 周期: | 94.267分钟 |
| 每日圈数: | 15.275764 |